Weather History for KNJM - October, 2012

Change the Weather History Date:

Saturday, October 13, 2012

  Actual Average (KNKT) Record (KNKT)
Temperature  
Mean Temperature 60 °F -  
Max Temperature 71 °F 73 °F 84 °F (2014)
Min Temperature 51 °F 53 °F 46 °F (2000)
Degree Days  
Heating Degree Days 4    
Growing Degree Days 10 (Base 50)    
Moisture  
Dew Point 47 °F    
Average Humidity 65    
Maximum Humidity 80    
Minimum Humidity 38    
Precipitation  
Precipitation 0.00 in - - ()
Sea Level Pressure  
Sea Level Pressure 30.38 in    
Wind  
Wind Speed 7 mph (NNE)    
Max Wind Speed 13 mph    
Max Gust Speed 18 mph    
Visibility 10 miles    
Events      
Averages and records for this station are not official NWS values.
T = Trace of Precipitation, MM = Missing Value Source: NWS Daily Summary

Daily Weather History Graph

Daily Weather History Graph

Search for Another Location

Airport or City:

Trip Planner

Search our weather history database for the weather conditions in past years. The results will help you decide how hot, cold, wet, or windy it might be!

Date:

Astronomy

Oct. 13, 2012 Rise Set
Actual Time 7:12 AM EDT 6:35 PM EDT
Civil Twilight 6:47 AM EDT 7:00 PM EDT
Nautical Twilight 6:17 AM EDT 7:29 PM EDT
Astronomical Twilight 5:48 AM EDT 7:59 PM EDT
Moon 5:03 AM EDT (10/13) 5:15 PM EDT (10/13)
Length of Visible Light 12h 13m
Length of Day
11h 22m
Waning Crescent, 5% of the Moon is Illuminated
Oct 13
Waning Crescent
Oct 15
New
Oct 21
First Quarter
Oct 29
Full
Nov 6
Last Quarter

Hourly Weather History & Observations

Time (EDT) Temp. Dew Point Humidity Pressure Visibility Wind Dir Wind Speed Gust Speed Precip Events Conditions
12:57 AM 55.9 °F 46.9 °F 72% 30.33 in 10.0 mi North 5.8 mph - N/A   Clear
1:57 AM 55.9 °F 46.9 °F 72% 30.34 in 10.0 mi North 8.1 mph - N/A   Clear
2:57 AM 55.9 °F 48.9 °F 77% 30.35 in 10.0 mi North 6.9 mph - N/A   Clear
3:57 AM 55.0 °F 48.9 °F 80% 30.34 in 10.0 mi NNE 9.2 mph - N/A   Clear
4:57 AM 54.0 °F 46.9 °F 77% 30.35 in 10.0 mi NNE 8.1 mph - N/A   Clear
5:57 AM 53.1 °F 46.0 °F 77% 30.37 in 10.0 mi North 5.8 mph - N/A   Clear
6:57 AM 51.1 °F 45.0 °F 80% 30.39 in 10.0 mi North 8.1 mph - N/A   Clear
7:57 AM 52.0 °F 46.0 °F 80% 30.41 in 10.0 mi North 6.9 mph - N/A   Clear
8:57 AM 55.9 °F 46.9 °F 72% 30.42 in 10.0 mi NNE 8.1 mph - N/A   Clear
10:57 AM 66.9 °F 50.0 °F 54% 30.43 in 10.0 mi NNE 10.4 mph - N/A   Clear
11:57 AM 68.0 °F 48.0 °F 49% 30.43 in 10.0 mi ENE 12.7 mph - N/A   Clear
12:57 PM 69.1 °F 46.9 °F 45% 30.42 in 10.0 mi NE 10.4 mph 18.4 mph N/A   Clear
1:57 PM 70.0 °F 46.9 °F 44% 30.40 in 10.0 mi NE 6.9 mph - N/A   Clear
2:57 PM 70.0 °F 48.9 °F 47% 30.38 in 10.0 mi NNE 8.1 mph - N/A   Clear
3:57 PM 70.0 °F 45.0 °F 41% 30.36 in 10.0 mi NNE 5.8 mph - N/A   Clear
5:57 PM 66.0 °F 39.9 °F 38% 30.38 in 10.0 mi NNE 5.8 mph - N/A   Clear
6:57 PM 60.1 °F 46.0 °F 60% 30.38 in 10.0 mi Calm Calm - N/A   Clear
7:57 PM 57.9 °F 46.9 °F 67% 30.38 in 10.0 mi NE 3.5 mph - N/A   Clear
8:57 PM 57.9 °F 46.9 °F 67% 30.38 in 10.0 mi NE 3.5 mph - N/A   Clear
9:57 PM 57.0 °F 48.0 °F 72% 30.37 in 10.0 mi NE 4.6 mph - N/A   Clear
10:57 PM 57.0 °F 48.9 °F 74% 30.37 in 10.0 mi NE 4.6 mph - N/A   Clear
11:57 PM 55.9 °F 50.0 °F 80% 30.36 in 10.0 mi NNE 5.8 mph - N/A   Clear